Home   Weather   Knarvik   Past weeks

Flag for Norway Past Weather in Knarvik, Norway — Yesterday and Last 2 Weeks

Now
59 °F

Drizzle. Low clouds.


Feels Like: 58 °F
Forecast: 55 / 60 °F
Wind: 6 mph from West

Location: Bergen / Florida

Current Time: Aug 30, 2016 at 5:02:39 PM

Latest Report: Aug 30, 2016 at 2:00 PM


Visibility: 2 mi

Pressure: 30.01 "Hg

Humidity: 89%

Dew Point: 55 °F

Location of KnarvikLocation

Past Weather in Knarvik — Graph

°F

Knarvik Temperature Yesterday

Maximum temperature yesterday: 65 °F (at 3:00 PM)
Minimum temperature yesterday: 51 °F (at 8:00 AM)
Average temperature yesterday: 57 °F

High & Low Weather Summary for the Past Weeks

 TemperatureHumidityPressure
High73 °F (Aug 22, 1:00 PM)90% (Aug 16, 6:00 AM)30.29 "Hg (Aug 16, 6:00 AM)
Low50 °F (Aug 20, 5:00 AM)40% (Aug 22, 1:00 PM)29.62 "Hg (Aug 26, 11:00 AM)
Average59 °F79%30.00 "Hg
* Reported Aug 15 2:00 PM — Aug 30 2:00 PM, Knarvik, Weather by CustomWeather, © 2016

Note: Actual official high and low records may vary slightly from our data, if they occured in-between our weather recording intervals... More about our weather records

Advertising

Knarvik Weather History for the Previous 24 Hours

Scroll right to see more
 ConditionsComfort  
Time TempWeatherWind HumidityBarometerVisibility
2:00 PM
Tue, Aug 30
59 °FDrizzle. Low clouds.6 mph89%30.01 "Hg2 mi
1:00 PM58 °FCool.7 mph88%29.99 "HgN/A
12:00 PM59 °FCool.3 mph89%29.97 "HgN/A
11:00 AM58 °FRain. Low clouds.1 mph89%29.96 "Hg3 mi
10:00 AM56 °FCool.3 mph89%29.95 "HgN/A
9:00 AM54 °FCool.6 mph88%29.93 "HgN/A
8:00 AM53 °FRain. Overcast.8 mph87%29.93 "Hg4 mi
7:00 AM52 °FCool.7 mph86%29.93 "HgN/A
6:00 AM53 °FCool.6 mph85%29.95 "HgN/A
5:00 AM54 °FCool.3 mph84%29.97 "HgN/A
4:00 AM54 °FCool.5 mph84%29.98 "HgN/A
3:00 AM54 °FCool.5 mph84%30.00 "HgN/A
2:00 AM54 °FCool.3 mph85%30.01 "HgN/A
1:00 AM54 °FCool.3 mph85%30.01 "HgN/A
12:00 AM54 °FCool.2 mph84%30.01 "HgN/A
11:00 PM
Mon, Aug 29
54 °FSprinkles. Overcast.2 mph80%30.00 "Hg6 mi
10:00 PM56 °FCool.2 mph72%29.99 "HgN/A
9:00 PM55 °FCool.1 mph69%29.99 "HgN/A
8:00 PM56 °FPassing clouds.2 mph67%29.98 "Hg31 mi
7:00 PM61 °FRefreshingly cool.3 mph55%29.98 "HgN/A
6:00 PM61 °FRefreshingly cool.3 mph59%29.97 "HgN/A
5:00 PM64 °FPartly sunny.5 mph54%29.96 "Hg31 mi
Weather by CustomWeather, © 2016

See weather overviewHow to use our weather pages